BREEZE-M DEB, 32035

Orbit data source: Space-Track

BREEZE-M DEB, 32035 is space debris in HEO originally from a launch on Tue, 28 Feb 2006 UTC launched from the Tyuratam Missile And Space Complex (TTMTR). Debris objects in space refer to the collection of defunct objects orbiting the Earth. Examples of debris include non-operational satellites, rocket bodies, and fragments generated from explosions, collisions, or faulty payload assembly.

Loading next visibility...
Identifier
32035, 2006-006N
Orbit
HEO
Country
Flag of CISCIS
Related business
Manufacturer
Khrunichev
Mission
Spacecraft
Bus & Motor
Unknown
Mass
Unknown
Launch date (UTC)
2006-02-28 (20 years ago)
Launch vehicle
Unknown
Launch site
Tyuratam Missile And Space Complex (TTMTR)
Object type
Payload
Rocket body
Debris
Shape & HBR
Unknown shape, 0.1 m
Radar Cross Section
Medium (>0.1 m² and <1 m²)

Expand to show TLE details & history
Last TLE update: 9 months ago

TLE from 9 months ago
0 BREEZE-M DEB
1 32035U 06006N   25266.97040943  .00003075  00000-0  73913-2 0  9992
2 32035  50.7753 142.4755 4746419 215.9799 100.1787  5.71314576367163
Epoch: 2025-09-23T23:17Z
TLE epoch observation values (Epoch: 2025-09-23T23:17:23.374Z)
Latitude
-0.00002°
Longitude
150.08544°
Altitude
10,252.086 km
Speed
4.217 km/s
True Right ascension
09h 29m 56s
True Declination
0° 00' 00"
Sunlit
Object was in daylight at epoch
Visualization orbit readout
Latitude
Unknown
Longitude
Unknown
Altitude
Unknown
Speed
Unknown
Apparent Right ascension
Unknown
Apparent Declination
Unknown
Sunlit
N/A
Visualization observer readout
Local Sidereal Time
17:11:10
Azimuth
Unknown
Elevation
Unknown
Doppler factor
Unknown
Orbital elements
Apogee altitude
13,113.778 km
Perigee altitude
566.081 km
Semi-major axis
13,218.066 km
Eccentricity
0.47464
Inclination
50.7753°
RAAN
142.4755°
Arg. of periapsis
215.9799°
True anomaly
144.07972°
Mean anomaly
100.1787°
Eccentric anomaly
122.98914°
Mean motion
1.42821 °/min
Orbital period
252.06 mins
BSTAR
0.0073913
Loading maneuver chart data...
Computing Atmospheric mass density...
Loading historical data...
Loading historical data...
Loading historical data...
Loading historical data...
Loading historical data...
Loading historical data...
Loading historical data...

Documentation

Showing up to 5 results
|